TimeEDT,TemperatureF,Dew PointF,Humidity,Sea Level PressureIn,VisibilityMPH,Wind Direction,Wind SpeedMPH,Gust SpeedMPH,PrecipitationIn,Events,Conditions,WindDirDegrees,DateUTC
12:15 AM,82.4,73.4,74,29.85,10.0,SW,10.4,-,N/A,,Clear,220,2013-07-20 04:15:00
12:35 AM,82.4,73.4,74,29.85,10.0,SW,9.2,-,N/A,,Clear,220,2013-07-20 04:35:00
12:55 AM,82.4,73.4,74,29.86,10.0,WSW,10.4,-,N/A,,Clear,240,2013-07-20 04:55:00
1:15 AM,82.4,73.4,74,29.86,10.0,WSW,8.1,-,N/A,,Clear,240,2013-07-20 05:15:00
1:35 AM,80.6,73.4,79,29.86,10.0,WSW,6.9,-,N/A,,Clear,240,2013-07-20 05:35:00
1:55 AM,80.6,73.4,79,29.86,10.0,WSW,8.1,-,N/A,,Clear,240,2013-07-20 05:55:00
2:15 AM,80.6,73.4,79,29.85,10.0,SW,6.9,-,N/A,,Clear,230,2013-07-20 06:15:00
2:35 AM,80.6,73.4,79,29.85,10.0,SW,6.9,-,N/A,,Clear,230,2013-07-20 06:35:00
2:55 AM,78.8,73.4,83,29.84,10.0,SW,5.8,-,N/A,,Clear,230,2013-07-20 06:55:00
3:15 AM,78.8,73.4,83,29.84,10.0,SW,6.9,-,N/A,,Clear,230,2013-07-20 07:15:00
3:35 AM,78.8,73.4,83,29.83,10.0,SW,8.1,-,N/A,,Clear,220,2013-07-20 07:35:00
3:55 AM,78.8,73.4,83,29.83,10.0,SW,5.8,-,N/A,,Clear,220,2013-07-20 07:55:00
4:15 AM,78.8,73.4,83,29.82,8.0,SW,6.9,-,N/A,,Clear,220,2013-07-20 08:15:00
4:35 AM,78.8,73.4,83,29.82,7.0,SW,6.9,-,N/A,,Clear,230,2013-07-20 08:35:00
4:55 AM,78.8,73.4,83,29.82,7.0,SW,6.9,-,N/A,,Clear,230,2013-07-20 08:55:00
5:15 AM,78.8,73.4,83,29.82,5.0,SW,6.9,-,N/A,,Clear,220,2013-07-20 09:15:00
5:35 AM,78.8,73.4,83,29.83,4.0,WSW,5.8,-,N/A,,Clear,240,2013-07-20 09:35:00
5:55 AM,78.8,73.4,83,29.84,4.0,WSW,8.1,-,N/A,,Clear,240,2013-07-20 09:55:00
6:15 AM,78.8,75.2,89,29.85,5.0,WSW,8.1,-,N/A,,Clear,250,2013-07-20 10:15:00
6:35 AM,78.8,75.2,89,29.85,6.0,WSW,9.2,-,N/A,,Clear,250,2013-07-20 10:35:00
6:55 AM,78.8,75.2,89,29.85,6.0,SW,9.2,-,N/A,,Clear,230,2013-07-20 10:55:00
7:15 AM,80.6,75.2,84,29.86,8.0,WSW,9.2,-,N/A,,Clear,250,2013-07-20 11:15:00
7:35 AM,82.4,75.2,79,29.85,8.0,WSW,11.5,-,N/A,,Partly Cloudy,250,2013-07-20 11:35:00
7:55 AM,82.4,75.2,79,29.85,10.0,West,11.5,-,N/A,,Partly Cloudy,260,2013-07-20 11:55:00
8:15 AM,82.4,73.4,74,29.86,10.0,WSW,12.7,-,N/A,,Clear,250,2013-07-20 12:15:00
8:35 AM,82.4,73.4,74,29.85,10.0,WSW,10.4,-,N/A,,Clear,250,2013-07-20 12:35:00
8:55 AM,84.2,73.4,70,29.85,10.0,WSW,12.7,17.3,N/A,,Clear,250,2013-07-20 12:55:00
9:15 AM,84.2,73.4,70,29.85,10.0,SW,10.4,-,N/A,,Clear,230,2013-07-20 13:15:00
9:35 AM,84.2,73.4,70,29.84,10.0,WSW,8.1,-,N/A,,Clear,240,2013-07-20 13:35:00
9:55 AM,86.0,73.4,66,29.84,10.0,WSW,12.7,17.3,N/A,,Clear,250,2013-07-20 13:55:00
10:15 AM,87.8,73.4,62,29.84,10.0,WSW,12.7,16.1,N/A,,Clear,250,2013-07-20 14:15:00
10:35 AM,87.8,71.6,58,29.84,10.0,West,13.8,-,N/A,,Clear,260,2013-07-20 14:35:00
10:55 AM,89.6,71.6,55,29.84,10.0,SW,13.8,17.3,N/A,,Clear,230,2013-07-20 14:55:00
11:15 AM,89.6,73.4,59,29.84,10.0,WSW,15.0,18.4,N/A,,Clear,250,2013-07-20 15:15:00
11:35 AM,91.4,73.4,55,29.83,10.0,WSW,16.1,19.6,N/A,,Clear,240,2013-07-20 15:35:00
11:55 AM,91.4,71.6,52,29.83,10.0,West,13.8,23.0,N/A,,Scattered Clouds,270,2013-07-20 15:55:00
12:15 PM,89.6,73.4,59,29.82,10.0,SW,15.0,-,N/A,,Scattered Clouds,230,2013-07-20 16:15:00
12:35 PM,89.6,71.6,55,29.82,10.0,West,18.4,21.9,N/A,,Scattered Clouds,260,2013-07-20 16:35:00
12:55 PM,91.4,71.6,52,29.82,10.0,SW,13.8,20.7,N/A,,Partly Cloudy,220,2013-07-20 16:55:00
1:15 PM,93.2,71.6,49,29.80,10.0,WSW,16.1,21.9,N/A,,Clear,240,2013-07-20 17:15:00
1:35 PM,93.2,71.6,49,29.80,10.0,SW,15.0,19.6,N/A,,Clear,230,2013-07-20 17:35:00
1:55 PM,93.2,71.6,49,29.79,10.0,WSW,12.7,20.7,N/A,,Partly Cloudy,250,2013-07-20 17:55:00
2:15 PM,95.0,69.8,44,29.78,10.0,WSW,18.4,24.2,N/A,,Clear,240,2013-07-20 18:15:00
2:35 PM,95.0,69.8,44,29.78,10.0,WSW,16.1,20.7,N/A,,Clear,240,2013-07-20 18:35:00
2:55 PM,96.8,69.8,41,29.77,10.0,WSW,16.1,27.6,N/A,,Clear,250,2013-07-20 18:55:00
3:15 PM,96.8,69.8,41,29.76,8.0,WSW,18.4,26.5,N/A,,Clear,240,2013-07-20 19:15:00
3:35 PM,95.0,69.8,44,29.76,10.0,WSW,15.0,24.2,N/A,,Clear,250,2013-07-20 19:35:00
3:55 PM,95.0,69.8,44,29.76,10.0,WSW,19.6,28.8,N/A,,Partly Cloudy,250,2013-07-20 19:55:00
4:15 PM,95.0,69.8,44,29.76,10.0,West,18.4,25.3,N/A,,Partly Cloudy,260,2013-07-20 20:15:00
4:35 PM,95.0,69.8,44,29.76,10.0,WSW,16.1,23.0,N/A,,Clear,240,2013-07-20 20:35:00
4:55 PM,95.0,71.6,47,29.76,10.0,West,12.7,23.0,N/A,,Scattered Clouds,270,2013-07-20 20:55:00
5:15 PM,95.0,71.6,47,29.76,10.0,West,18.4,25.3,N/A,,Partly Cloudy,260,2013-07-20 21:15:00
5:35 PM,91.4,71.6,52,29.77,10.0,West,16.1,21.9,N/A,,Scattered Clouds,260,2013-07-20 21:35:00
5:55 PM,91.4,71.6,52,29.77,10.0,West,12.7,21.9,N/A,Thunderstorm,Partly Cloudy,270,2013-07-20 21:55:00
6:15 PM,91.4,71.6,52,29.77,10.0,WSW,11.5,19.6,N/A,,Partly Cloudy,250,2013-07-20 22:15:00
6:35 PM,89.6,71.6,55,29.77,10.0,WSW,9.2,-,N/A,,Partly Cloudy,250,2013-07-20 22:35:00
6:55 PM,89.6,73.4,59,29.78,10.0,SW,9.2,-,N/A,,Clear,230,2013-07-20 22:55:00
7:15 PM,89.6,73.4,59,29.78,10.0,SW,8.1,-,N/A,,Clear,230,2013-07-20 23:15:00
7:35 PM,87.8,71.6,58,29.79,10.0,SW,8.1,-,N/A,,Clear,230,2013-07-20 23:35:00
7:55 PM,87.8,71.6,58,29.80,10.0,WSW,5.8,-,N/A,,Clear,240,2013-07-20 23:55:00
8:15 PM,86.0,71.6,62,29.81,10.0,SW,5.8,-,N/A,,Clear,220,2013-07-21 00:15:00
8:35 PM,84.2,73.4,70,29.82,10.0,SSW,5.8,-,N/A,,Clear,210,2013-07-21 00:35:00
8:55 PM,84.2,73.4,70,29.82,10.0,SSW,5.8,-,N/A,,Clear,210,2013-07-21 00:55:00
9:15 PM,82.4,73.4,74,29.82,10.0,SW,4.6,-,N/A,Thunderstorm,Clear,220,2013-07-21 01:15:00
9:35 PM,82.4,73.4,74,29.83,10.0,SW,5.8,-,N/A,Thunderstorm,Clear,220,2013-07-21 01:35:00
9:55 PM,82.4,73.4,74,29.83,10.0,South,4.6,-,N/A,Thunderstorm,Clear,190,2013-07-21 01:55:00
10:15 PM,82.4,73.4,74,29.84,10.0,SSW,4.6,-,N/A,,Clear,200,2013-07-21 02:15:00
10:35 PM,82.4,73.4,74,29.84,8.0,SW,11.5,16.1,N/A,Thunderstorm,Clear,220,2013-07-21 02:35:00
10:55 PM,80.6,66.2,61,29.85,10.0,SW,13.8,-,N/A,Thunderstorm,Clear,220,2013-07-21 02:55:00
11:15 PM,78.8,66.2,65,29.87,10.0,WSW,12.7,20.7,N/A,Thunderstorm,Scattered Clouds,250,2013-07-21 03:15:00
11:35 PM,73.4,68.0,83,29.87,10.0,West,13.8,-,0.01,Thunderstorm,Thunderstorm,260,2013-07-21 03:35:00
11:55 PM,71.6,68.0,88,29.85,10.0,South,6.9,-,0.03,,Scattered Clouds,180,2013-07-21 03:55:00